Location: Newark
(52.5667°N, 8.8000°W)
Time: 22:54:31
(UTC+00:00)

N. Korean satellite - Pass Details

Date: 24 January 2020
Orbit: 456 x 505 km, 97.2° (Epoch: 27 February)

Event Time Altitude Azimuth Distance (km) Brightness Sun altitude
Rises 18:21:56 0° 201° (SSW) 2,466 10.7 -11.4°
Reaches altitude 10° 18:24:23 10° 220° (SW) 1,598 10.1 -11.8°
Maximum altitude 18:26:55 19° 268° (W) 1,146 9.5 -12.1°
Drops below altitude 10° 18:29:29 10° 316° (NW) 1,614 9.6 -12.5°
Sets 18:31:58 0° 335° (NNW) 2,500 10.3 -12.9°
